Location: Newark
(42.4678°N, 122.8017°W)
Time: 14:21:06
(UTC+00:00)

N. Korean satellite - Visible Passes

Search period start: 29 September 2020 00:00
Search period end: 09 October 2020 00:00
Orbit: 455 x 503 km, 97.2° (Epoch: 28 September)

Date Brightness Start Highest point End Pass type
(mag) Time Alt. Az. Time Alt. Az. Time Alt. Az.
29 Sep 9.4 13:02:45 10° NE 13:05:37 22° E 13:08:27 10° SSE visible
30 Sep 10.2 12:38:28 10° ENE 12:39:21 11° E 12:40:15 10° ESE visible
02 Oct 8.5 13:17:36 10° NNE 13:20:54 34° E 13:24:06 10° SSE visible
03 Oct 9.8 12:52:21 10° NE 12:54:41 16° E 12:56:58 10° SE visible
05 Oct 10.7 02:09:43 10° WSW 02:11:01 12° W 02:12:20 10° WNW visible
05 Oct 7.4 13:32:34 10° NNE 13:36:05 54° E 13:39:30 10° S visible
06 Oct 9.1 13:06:56 10° NE 13:09:54 24° E 13:12:49 10° SSE visible
07 Oct 10.1 12:42:14 10° ENE 12:43:38 12° E 12:45:01 10° ESE visible
